Location: Brown Observing Site
(43.4354°N, 116.3366°W)
Time: 11:55:04
(UTC-07:00)

Envisat - Pass Details

Date: 29 October 2019
Orbit: 764 x 766 km, 98.1° (Epoch: 14 November)

Event Time Altitude Azimuth Distance (km) Brightness Sun altitude
Rises 20:55:41 0° 204° (SSW) 3,217 6.5 -25.0°
Reaches altitude 10° 20:58:33 10° 221° (SW) 2,296 5.9 -25.5°
Maximum altitude 21:02:15 20° 268° (W) 1,702 5.6 -26.2°
Drops below altitude 10° 21:05:59 10° 316° (NW) 2,308 6.1 -26.9°
Sets 21:08:53 0° 332° (NNW) 3,239 6.7 -27.4°
